Погода в Липовке

Россия / Волгоградская область     49°46′03″N   44°55′44″E
темп.,
°C
ветер,
м/с
пор.,
м/с
влажн.,
%
обл.,
%
осадки,
мм/ч
давл.,
гПа
погр.,
м
26 июля, пн
пн2600:00+21св594263 0.0 1021304
03:00+18всв355243 0.0 102291
06:00+19всв36534 0.0 1023162
09:00+24всв55360 0.0 1023869
12:00+27св43290 0.0 10232344
15:00+28св242720 0.0 10212792
18:00+27ссв553083 0.0 10211416
21:00+21св48384 0.0 1022134
27 июля, вт
вт2700:00+19св410480 0.0 1022197
03:00+18всв36520 0.0 102299
06:00+19всв25490 0.0 1023136
09:00+25всв44310 0.0 10221201
12:00+27св44274 0.0 10212530
15:00+28всв342649 0.0 10192834
18:00+26с3534100 0.0 1019148
21:00+22ссз22384 0.0 101914
28 июля, ср
ср2800:00+20ссз22495 0.0 101920
03:00+19ссз22540 0.0 101918
06:00+20ссз23540 0.0 101986
09:00+26всв22360 0.0 1019946
12:00+28юв11281 0.0 10182703
15:00+29вюв02245 0.0 10162981
18:00+30ю122514 0.0 10152758
21:00+24сз11351 0.0 101611
29 июля, чт
чт2900:00+23юз11355 0.0 101511
03:00+22ю23375 0.0 101415
06:00+23ююз363968 0.0 1014144
09:00+30юз692894 0.0 10131248
12:00+32з792681 0.0 10123011
15:00+31зсз81032100 0.0 10112547
18:00+26з5105497 1.0 1011483
21:00+23юз006619 1.6 101111
30 июля, пт
пт3000:00+22зюз2268100 0.0 101119
03:00+22з23705 0.1 101127
06:00+23сз256318 0.0 1012141
09:00+28зсз35437 0.0 1012806
12:00+32зсз57310 0.0 10122340
15:00+33зсз56275 0.0 10112910
18:00+33с34295 0.0 10102036
21:00+28св3441100 0.0 101283